Kosmos-1158

operational
NORAD ID: 11693 Int'l Des: 1980-012 Owner: GUKOSR Country: SU
LEOCIRCULAR

Über Kosmos-1158

Beschreibung wird geladen...

Live-Position

3D-Globus wird geladen...

Nächste Überflüge

Höhenverlauf

Altitude vs Time

uPlot chart will show altitude changes over time

Zweizeiliger Elementsatz

1 11693U 80012C 26062.29332311 -.00000020 00000-0 -22386-4 0 9990
2 11693 74.0252 4.3582 0028016 307.8136 167.7643 12.52379358105464
Epoch: 3. März 2026 • Age: 39 hours

Aktueller Status

Höhe 1446.4 km
Geschwindigkeit 7.15 km/s
Subsatellitenpunkt -35.06°S, 33.6°W
Startdatum 11. Feb. 1980
Alter 46 years
Typ other

Technische Details

Klassifizierung Payload
Masse 60.00 kg
Trockenmasse 60.00 kg
Gesamtmasse 60.00 kg
Länge 0.80 m
Durchmesser 0.80 m
Spannweite 0.80 m
Form Poly
Hersteller NPOPM
Bus-Typ Strela-1 11F625
Phasenstatus In Orbit
Besitzer/Staat GUKOSR/SU

Große Konstellationen

Loading constellations...